KENT RIDGE 1

Last updated on Mon Sep 07 2026 00:02:45 GMT+0000 (Coordinated Universal Time)

1 41167U 15077B 26249.55066479 .00002747 00000+0 80513-4 0 9994 2 41167 14.9807 20.6882 0008127 308.0746 51.8843 15.23551221593522
UTC large
Height (km)
Speed (km/s)
/
Latitude / Longitude
Inclination (degrees)
Orbital Period (minutes)
Azimuth
Elevation
Range (km)
Doppler Factor

Next 0 passes for location: London (51.5072 / 0.1276)

No passes found over London.
KENT RIDGE 1